This is the latest recevied weather packets stored in our database for station/object OE2ATN. If no packets are shown the sender has not sent any weather packets the latest 10 day(s).
| Time | Temp. | Humidity | Pressure | Rain* | Wind** | Luminosity | Snow |
|---|---|---|---|---|---|---|---|
| 1777541923 | 12.22° C | 46% | 1031.7 hPa | 0 mm | - | - | - |
| 1777541623 | 12.22° C | 45% | 1031.7 hPa | 0 mm | - | - | - |
| 1777541323 | 11.67° C | 44% | 1031.9 hPa | 0 mm | - | - | - |
| 1777541024 | 11.67° C | 47% | 1031.9 hPa | 0 mm | - | - | - |
| 1777540723 | 11.67° C | 45% | 1031.9 hPa | 0 mm | - | - | - |
| 1777540423 | 11.67° C | 47% | 1031.9 hPa | 0 mm | - | - | - |
| 1777540123 | 11.67° C | 47% | 1032 hPa | 0 mm | - | - | - |
| 1777539822 | 11.11° C | 46% | 1032.1 hPa | 0 mm | - | - | - |
| 1777539522 | 11.11° C | 50% | 1032.1 hPa | 0 mm | - | - | - |
| 1777539221 | 11.11° C | 49% | 1032.2 hPa | 0 mm | - | - | - |
| 1777538920 | 10.56° C | 52% | 1032.1 hPa | 0 mm | - | - | - |
| 1777538620 | 10.56° C | 52% | 1032.2 hPa | 0 mm | - | - | - |
| 1777538321 | 10° C | 53% | 1032.3 hPa | 0 mm | - | - | - |
| 1777538020 | 10° C | 55% | 1032.2 hPa | 0 mm | - | - | - |
| 1777537720 | 9.44° C | 55% | 1032.3 hPa | 0 mm | - | - | - |
| 1777537418 | 9.44° C | 59% | 1032.2 hPa | 0 mm | - | - | - |
| 1777537115 | 9.44° C | 58% | 1032.4 hPa | 0 mm | - | - | - |
| 1777536816 | 8.89° C | 61% | 1032.4 hPa | 0 mm | - | - | - |
| 1777536515 | 8.89° C | 63% | 1032.4 hPa | 0 mm | - | - | - |
| 1777536215 | 8.33° C | 65% | 1032.5 hPa | 0 mm | - | - | - |
| 1777535915 | 8.33° C | 63% | 1032.6 hPa | 0 mm | - | - | - |
| 1777535615 | 7.78° C | 65% | 1032.6 hPa | 0 mm | - | - | - |
| 1777535315 | 7.78° C | 65% | 1032.6 hPa | 0 mm | - | - | - |
| 1777535015 | 7.22° C | 65% | 1032.6 hPa | 0 mm | - | - | - |
| 1777534714 | 7.22° C | 68% | 1032.8 hPa | 0 mm | - | - | - |
* Rain latest hour (hover to see other rain measurements)
** Current wind speed in m/s (hover to see current wind gust speed)